When you browse on this site, cookies collect data to enhance your experience and personalize the content and advertising you see.
Visit our Privacy Policy to learn more. By continuing to use the site, you agree to this use of cookies and data.
  • In Hungary
  • List of Countries
  • For 7 days
  • Water Temperature
  • Weather Map
  • News
  • Weather Widgets
  • user-avatar
    Login

    Hourly Weather Berat

    Today, 15 September, Sunday

    Time Temperature Precipitation Wind Pressure Humidity
    00:00 +21°C° 0 mm 2 mps 750 mmHg 49%
    01:00 +21°C° 0 mm 2 mps 750 mmHg 48%
    02:00 +21°C° 0 mm 2 mps 750 mmHg 49%
    03:00 +20°C° 0 mm 2 mps 749 mmHg 50%
    04:00 +20°C° 0 mm 2 mps 749 mmHg 51%
    05:00 +21°C° 0 mm 2 mps 750 mmHg 51%
    06:00 +23°C° 0 mm 2 mps 750 mmHg 51%
    07:00 +24°C° 0 mm 2 mps 750 mmHg 50%
    08:00 +26°C° 0 mm 2 mps 750 mmHg 44%
    09:00 +28°C° 0 mm 2 mps 750 mmHg 39%
    10:00 +31°C° 0 mm 2 mps 750 mmHg 33%
    11:00 +31°C° 0 mm 2 mps 750 mmHg 31%
    12:00 +32°C° 0 mm 2 mps 750 mmHg 29%
    13:00 +34°C° 0 mm 2 mps 750 mmHg 27%
    14:00 +32°C° 0 mm 2 mps 749 mmHg 30%
    15:00 +31°C° 0 mm 3 mps 749 mmHg 32%
    16:00 +30°C° 0 mm 4 mps 748 mmHg 35%
    17:00 +28°C° 0 mm 3 mps 749 mmHg 43%
    18:00 +26°C° 0 mm 2 mps 749 mmHg 50%
    19:00 +24°C° 0 mm 1 mps 749 mmHg 58%
    20:00 +24°C° 0 mm 1 mps 749 mmHg 59%
    21:00 +23°C° 0 mm 1 mps 749 mmHg 60%
    22:00 +21°C° 0 mm 0 mps 748 mmHg 61%
    23:00 +23°C° 0 mm 1 mps 748 mmHg 61%

    Tomorrow, 16 September, Monday

    Time Temperature Precipitation Wind Pressure Humidity
    00:00 +22°C° 0 mm 1 mps 748 mmHg 61%
    01:00 +22°C° 0 mm 1 mps 748 mmHg 61%
    02:00 +22°C° 0 mm 1 mps 748 mmHg 61%
    03:00 +22°C° 0 mm 1 mps 748 mmHg 61%
    04:00 +21°C° 0 mm 1 mps 747 mmHg 60%
    05:00 +22°C° 0 mm 1 mps 747 mmHg 57%
    06:00 +24°C° 0 mm 1 mps 747 mmHg 53%
    07:00 +25°C° 0 mm 1 mps 747 mmHg 50%
    08:00 +26°C° 0 mm 1 mps 747 mmHg 46%
    09:00 +28°C° 0 mm 1 mps 747 mmHg 41%
    10:00 +30°C° 0 mm 2 mps 747 mmHg 37%
    11:00 +31°C° 0 mm 3 mps 747 mmHg 37%
    12:00 +31°C° 0 mm 3 mps 746 mmHg 37%
    13:00 +33°C° 0 mm 4 mps 746 mmHg 37%
    14:00 +32°C° 0 mm 4 mps 745 mmHg 41%
    15:00 +30°C° 0 mm 4 mps 745 mmHg 45%
    16:00 +29°C° 0 mm 3 mps 745 mmHg 49%
    17:00 +27°C° 0 mm 3 mps 745 mmHg 57%
    18:00 +25°C° 0 mm 2 mps 745 mmHg 65%
    19:00 +23°C° 0 mm 1 mps 745 mmHg 74%
    20:00 +21°C° 0 mm 0 mps 745 mmHg 75%
    21:00 +20°C° 0 mm 0 mps 745 mmHg 76%
    22:00 +20°C° 0 mm 0 mps 745 mmHg 76%
    23:00 +20°C° 0 mm 0 mps 745 mmHg 76%

    Day after tomorrow, 17 September, Tuesday

    Time Temperature Precipitation Wind Pressure Humidity
    00:00 +20°C° 0 mm 0 mps 745 mmHg 75%
    01:00 +19°C° 0 mm 0 mps 745 mmHg 74%
    02:00 +19°C° 0 mm 0 mps 745 mmHg 74%
    03:00 +19°C° 0 mm 0 mps 744 mmHg 73%
    04:00 +21°C° 0 mm 1 mps 744 mmHg 72%
    05:00 +20°C° 0 mm 0 mps 744 mmHg 67%
    06:00 +21°C° 0 mm 0 mps 744 mmHg 63%
    07:00 +22°C° 0 mm 0 mps 744 mmHg 58%
    08:00 +24°C° 0 mm 0 mps 745 mmHg 51%
    09:00 +28°C° 0 mm 1 mps 745 mmHg 43%
    10:00 +30°C° 0 mm 1 mps 745 mmHg 36%
    11:00 +31°C° 0 mm 2 mps 745 mmHg 34%
    12:00 +31°C° 0 mm 3 mps 744 mmHg 32%
    13:00 +33°C° 0 mm 3 mps 744 mmHg 30%
    14:00 +31°C° 0 mm 3 mps 744 mmHg 34%
    15:00 +30°C° 0 mm 3 mps 743 mmHg 37%
    16:00 +30°C° 0 mm 3 mps 743 mmHg 40%
    17:00 +27°C° 0 mm 2 mps 743 mmHg 49%
    18:00 +25°C° 0 mm 1 mps 743 mmHg 57%
    19:00 +21°C° 0 mm 0 mps 744 mmHg 65%
    20:00 +21°C° 0 mm 0 mps 744 mmHg 65%
    21:00 +20°C° 0 mm 0 mps 744 mmHg 65%
    22:00 +22°C° 0 mm 1 mps 744 mmHg 65%
    23:00 +22°C° 0 mm 1 mps 744 mmHg 63%

    18 September, Wednesday

    Time Temperature Precipitation Wind Pressure Humidity
    00:00 +22°C° 0 mm 1 mps 744 mmHg 62%
    01:00 +21°C° 0 mm 1 mps 744 mmHg 60%
    02:00 +21°C° 0 mm 1 mps 744 mmHg 59%
    03:00 +21°C° 0 mm 1 mps 743 mmHg 58%
    04:00 +21°C° 0 mm 1 mps 743 mmHg 57%
    05:00 +22°C° 0 mm 1 mps 743 mmHg 53%
    06:00 +23°C° 0 mm 1 mps 743 mmHg 49%
    07:00 +24°C° 0 mm 1 mps 744 mmHg 45%
    08:00 +26°C° 0 mm 1 mps 744 mmHg 41%
    09:00 +28°C° 0 mm 1 mps 744 mmHg 36%
    10:00 +30°C° 0 mm 2 mps 744 mmHg 32%
    11:00 +31°C° 0 mm 2 mps 744 mmHg 32%
    12:00 +31°C° 0 mm 3 mps 743 mmHg 33%
    13:00 +33°C° 0 mm 3 mps 743 mmHg 34%
    14:00 +31°C° 0 mm 3 mps 743 mmHg 36%
    15:00 +31°C° 0 mm 3 mps 742 mmHg 39%
    16:00 +30°C° 0 mm 3 mps 742 mmHg 42%
    17:00 +28°C° 0 mm 2 mps 742 mmHg 52%
    18:00 +26°C° 0 mm 2 mps 743 mmHg 61%
    19:00 +24°C° 0 mm 1 mps 743 mmHg 71%
    20:00 +24°C° 0 mm 1 mps 743 mmHg 71%
    21:00 +23°C° 0 mm 1 mps 743 mmHg 72%
    22:00 +23°C° 0 mm 1 mps 744 mmHg 73%
    23:00 +23°C° 0 mm 1 mps 744 mmHg 72%

    19 September, Thursday

    Time Temperature Precipitation Wind Pressure Humidity
    00:00 +23°C° 0 mm 1 mps 743 mmHg 71%
    01:00 +23°C° 0 mm 1 mps 743 mmHg 69%
    02:00 +23°C° 0 mm 1 mps 743 mmHg 69%
    03:00 +23°C° 0 mm 1 mps 743 mmHg 68%
    04:00 +23°C° 0 mm 1 mps 742 mmHg 67%
    05:00 +23°C° 0 mm 1 mps 742 mmHg 64%
    06:00 +24°C° 0 mm 1 mps 742 mmHg 61%
    07:00 +25°C° 0 mm 1 mps 743 mmHg 59%
    08:00 +26°C° 0 mm 1 mps 743 mmHg 54%
    09:00 +28°C° 0 mm 2 mps 743 mmHg 49%
    10:00 +30°C° 0 mm 2 mps 743 mmHg 44%
    11:00 +30°C° 0.4 mm 3 mps 743 mmHg 44%
    12:00 +30°C° 0.4 mm 3 mps 742 mmHg 43%
    13:00 +30°C° 0.4 mm 4 mps 742 mmHg 43%
    14:00 +29°C° 1.4 mm 3 mps 742 mmHg 50%
    15:00 +27°C° 1.4 mm 3 mps 742 mmHg 58%
    16:00 +26°C° 1.4 mm 3 mps 742 mmHg 66%
    17:00 +25°C° 1.3 mm 2 mps 742 mmHg 71%
    18:00 +23°C° 1.3 mm 1 mps 743 mmHg 77%
    19:00 +22°C° 1.3 mm 1 mps 743 mmHg 82%
    20:00 +22°C° 0.9 mm 1 mps 744 mmHg 84%
    21:00 +21°C° 0.9 mm 1 mps 744 mmHg 86%
    22:00 +21°C° 0.9 mm 1 mps 744 mmHg 87%
    23:00 +21°C° 0.4 mm 1 mps 744 mmHg 87%

    20 September, Friday

    Time Temperature Precipitation Wind Pressure Humidity
    00:00 +20°C° 0.4 mm 1 mps 744 mmHg 88%
    01:00 +20°C° 0.4 mm 1 mps 744 mmHg 88%
    02:00 +20°C° 0 mm 1 mps 744 mmHg 87%
    03:00 +19°C° 0 mm 1 mps 744 mmHg 87%
    04:00 +19°C° 0 mm 1 mps 744 mmHg 86%
    05:00 +19°C° 0 mm 1 mps 744 mmHg 84%
    06:00 +20°C° 0 mm 1 mps 744 mmHg 81%
    07:00 +20°C° 0 mm 1 mps 745 mmHg 78%
    08:00 +20°C° 0 mm 2 mps 745 mmHg 73%
    09:00 +21°C° 0 mm 2 mps 745 mmHg 67%
    10:00 +23°C° 0 mm 2 mps 746 mmHg 61%
    11:00 +24°C° 0 mm 2 mps 746 mmHg 56%
    12:00 +25°C° 0 mm 3 mps 745 mmHg 50%
    13:00 +26°C° 0 mm 3 mps 745 mmHg 45%
    14:00 +26°C° 0 mm 3 mps 745 mmHg 43%
    15:00 +25°C° 0 mm 3 mps 746 mmHg 41%
    16:00 +25°C° 0 mm 3 mps 746 mmHg 39%
    17:00 +22°C° 0 mm 3 mps 746 mmHg 41%
    18:00 +21°C° 0 mm 2 mps 747 mmHg 43%
    19:00 +19°C° 0 mm 2 mps 747 mmHg 45%
    20:00 +18°C° 0 mm 2 mps 748 mmHg 45%
    21:00 +18°C° 0 mm 3 mps 748 mmHg 45%
    22:00 +17°C° 0 mm 3 mps 748 mmHg 44%
    23:00 +16°C° 0 mm 3 mps 749 mmHg 44%
    Show more